Montello, Wisconsin, United States (53949)
Lat: 43.79N, Lon: 89.32W
Wx Zone: WIZ046
Local Info
Past Weather Observations for Tuesday, December 16, 2014

NOTE: This archive is for the closest National Weather Service station to Montello. Information may differ from the station used for current weather conditions.

Click here for Long-term Archive

Time Weather Temperature Dewpoint Humidity Pressure Winds Precip Visibility
23:50
Overcast
23°F / -5°C 18°F / -8°C 80% 30.15 in
(1021 mb)
NW 11.5 mph
(NW 19 kph)
- 10SM
23:30
Overcast
23°F / -5°C 18°F / -8°C 80% 30.15 in
(1021 mb)
NW 11.5 mph
(NW 19 kph)
- 10SM
23:10
Overcast
25°F / -4°C 18°F / -8°C 74% 30.15 in
(1021 mb)
NW 12.7 mph
(NW 20 kph)
- 10SM
22:50
Overcast
25°F / -4°C 18°F / -8°C 74% 30.15 in
(1021 mb)
NNW 11.5 mph
(NNW 19 kph)
- 10SM
22:30
Overcast
25°F / -4°C 18°F / -8°C 74% 30.15 in
(1021 mb)
NW 12.7 mph
(NW 20 kph)
- 10SM
22:10
Overcast
25°F / -4°C 18°F / -8°C 74% 30.15 in
(1021 mb)
NW 12.7 mph
(NW 20 kph)
- 10SM
21:50
Overcast
25°F / -4°C 18°F / -8°C 74% 30.12 in
(1020 mb)
NW 9.2 mph
(NW 15 kph)
- 10SM
21:30
Overcast
25°F / -4°C 18°F / -8°C 74% 30.12 in
(1020 mb)
NW 15 mph
(NW 24 kph)
- 10SM
21:10
Overcast
25°F / -4°C 19°F / -7°C 80% 30.12 in
(1020 mb)
NW 13.8 mph
(NW 22 kph)
- 10SM
20:50
Overcast
25°F / -4°C 19°F / -7°C 80% 30.12 in
(1020 mb)
WNW 12.7 mph
(WNW 20 kph)
- 10SM
20:30
Overcast
25°F / -4°C 19°F / -7°C 80% 30.12 in
(1020 mb)
NW 9.2 mph
(NW 15 kph)
- 10SM
20:10
Overcast
25°F / -4°C 19°F / -7°C 80% 30.09 in
(1019 mb)
NW 12.7 mph
(NW 20 kph)
- 10SM
19:50
Overcast
27°F / -3°C 21°F / -6°C 80% 30.09 in
(1019 mb)
NW 15 mph
(NW 24 kph)
- 10SM
19:30
Overcast
27°F / -3°C 21°F / -6°C 80% 30.09 in
(1019 mb)
NW 9.2 mph
(NW 15 kph)
- 10SM
19:10
Overcast
27°F / -3°C 19°F / -7°C 74% 30.09 in
(1019 mb)
NW 15 mph
(NW 24 kph)
- 10SM
18:50
Overcast
27°F / -3°C 19°F / -7°C 74% 30.09 in
(1019 mb)
NW 13.8 mph
(NW 22 kph)
- 10SM
18:30
Overcast
27°F / -3°C 19°F / -7°C 74% 30.06 in
(1018 mb)
NW 16.1 mph
(NW 26 kph)
- 10SM
18:10
Overcast
27°F / -3°C 19°F / -7°C 74% 30.06 in
(1018 mb)
NW 13.8 mph
(NW 22 kph)
- 10SM
17:50
Overcast
28°F / -2°C 21°F / -6°C 74% 30.06 in
(1018 mb)
NW 12.7 mph
(NW 20 kph)
- 10SM
17:30
Overcast
28°F / -2°C 21°F / -6°C 74% 30.06 in
(1018 mb)
NW 10.4 mph
(NW 17 kph)
- 10SM
17:10
Overcast
28°F / -2°C 21°F / -6°C 74% 30.06 in
(1018 mb)
NW 15 mph
(NW 24 kph)
- 10SM
16:50
Overcast
28°F / -2°C 23°F / -5°C 80% 30.04 in
(1017 mb)
NW 13.8 mph
(NW 22 kph)
- 10SM
16:30
Overcast
28°F / -2°C 23°F / -5°C 80% 30.04 in
(1017 mb)
NW 12.7 mph
(NW 20 kph)
- 10SM
16:10
Overcast
28°F / -2°C 23°F / -5°C 80% 30.01 in
(1016 mb)
NW 16.1 mph
(NW 26 kph)
- 10SM
15:50
Overcast
30°F / -1°C 23°F / -5°C 75% 30.01 in
(1016 mb)
NW 10.4 mph
(NW 17 kph)
- 10SM
15:30
Overcast
30°F / -1°C 25°F / -4°C 80% 29.98 in
(1015 mb)
NW 12.7 mph
(NW 20 kph)
- 10SM
15:10
Overcast
30°F / -1°C 25°F / -4°C 80% 29.98 in
(1015 mb)
NW 17.3 mph
(NW 28 kph)
- 10SM
14:50
Overcast
30°F / -1°C 25°F / -4°C 80% 29.95 in
(1014 mb)
NW 16.1 mph
(NW 26 kph)
- 10SM
14:30
Overcast
32°F / 0°C 25°F / -4°C 75% 29.95 in
(1014 mb)
NW 16.1 mph
(NW 26 kph)
- 10SM
14:10
Overcast
32°F / 0°C 27°F / -3°C 80% 29.92 in
(1013 mb)
NNW 12.7 mph
(NNW 20 kph)
- 10SM
13:50
Overcast
32°F / 0°C 27°F / -3°C 80% 29.92 in
(1013 mb)
NW 18.4 mph
(NW 30 kph)
- 10SM
13:30
Overcast
32°F / 0°C 27°F / -3°C 80% 29.92 in
(1013 mb)
NNW 13.8 mph
(NNW 22 kph)
- 10SM
13:10
Overcast
32°F / 0°C 28°F / -2°C 87% 29.92 in
(1013 mb)
NW 13.8 mph
(NW 22 kph)
- 10SM
12:50
Overcast
32°F / 0°C 27°F / -3°C 80% 29.92 in
(1013 mb)
NW 12.7 mph
(NW 20 kph)
- 10SM
12:30
Overcast
32°F / 0°C 28°F / -2°C 87% 29.89 in
(1012 mb)
NW 20.7 mph
(NW 33 kph)
- 10SM
12:10
Overcast
32°F / 0°C 28°F / -2°C 87% 29.89 in
(1012 mb)
NW 12.7 mph
(NW 20 kph)
- 10SM
11:50
Overcast
32°F / 0°C 30°F / -1°C 93% 29.89 in
(1012 mb)
NW 15 mph
(NW 24 kph)
- 10SM
11:30
Overcast
Fog And Mist
32°F / 0°C 30°F / -1°C 93% 29.89 in
(1012 mb)
NW 13.8 mph
(NW 22 kph)
- 3SM
11:10
Overcast
Light Snow
32°F / 0°C 32°F / 0°C 100% 29.89 in
(1012 mb)
NW 15 mph
(NW 24 kph)
- 5SM
10:50
Overcast
Fog And Mist
32°F / 0°C 32°F / 0°C 100% 29.89 in
(1012 mb)
NW 15 mph
(NW 24 kph)
- 5SM
10:30
Overcast
32°F / 0°C 32°F / 0°C 100% 29.86 in
(1011 mb)
NW 15 mph
(NW 24 kph)
- 10SM
10:10
Overcast
Fog And Mist
32°F / 0°C 32°F / 0°C 100% 29.83 in
(1010 mb)
NW 17.3 mph
(NW 28 kph)
- 3SM
09:50
Overcast
Light Snow
32°F / 0°C 32°F / 0°C 100% 29.83 in
(1010 mb)
NW 17.3 mph
(NW 28 kph)
- 2 1/2SM
09:30
Overcast
34°F / 1°C 32°F / 0°C 93% 29.83 in
(1010 mb)
NW 15 mph
(NW 24 kph)
- 7SM
09:10
Overcast
Light Snow
34°F / 1°C 34°F / 1°C 100% 29.8 in
(1009 mb)
NW 15 mph
(NW 24 kph)
- 7SM
08:50
Overcast
Drizzle
34°F / 1°C 34°F / 1°C 100% 29.8 in
(1009 mb)
NW 15 mph
(NW 24 kph)
- 10SM
08:30
Overcast
Drizzle
34°F / 1°C 34°F / 1°C 100% 29.77 in
(1008 mb)
NW 11.5 mph
(NW 19 kph)
- 10SM
08:10
Overcast
Light Rain
36°F / 2°C 34°F / 1°C 93% 29.77 in
(1008 mb)
NW 13.8 mph
(NW 22 kph)
- 10SM
07:50
Overcast
Rain
36°F / 2°C 36°F / 2°C 100% 29.74 in
(1007 mb)
NW 12.7 mph
(NW 20 kph)
- 10SM
07:30
Overcast
Light Rain
37°F / 3°C 37°F / 3°C 100% 29.74 in
(1007 mb)
NW 13.8 mph
(NW 22 kph)
- 10SM
07:10
Overcast
Rain
39°F / 4°C 39°F / 4°C 100% 29.71 in
(1006 mb)
NW 11.5 mph
(NW 19 kph)
- 10SM
06:50
Overcast
Light Rain
41°F / 5°C 39°F / 4°C 93% 29.71 in
(1006 mb)
NNW 9.2 mph
(NNW 15 kph)
- 10SM
06:30
Overcast
Light Rain
41°F / 5°C 39°F / 4°C 93% 29.71 in
(1006 mb)
NW 5.8 mph
(NW 9 kph)
- 10SM
06:10
Overcast
Light Rain
41°F / 5°C 39°F / 4°C 93% 29.68 in
(1005 mb)
NW 9.2 mph
(NW 15 kph)
- 10SM
05:50
Overcast
Drizzle
41°F / 5°C 39°F / 4°C 93% 29.68 in
(1005 mb)
NW 3.5 mph
(NW 6 kph)
0.01 in
(0.25 mm)
4SM
05:30
Overcast
Light Rain
41°F / 5°C 39°F / 4°C 93% 29.68 in
(1005 mb)
NW 3.5 mph
(NW 6 kph)
0.01 in
(0.25 mm)
5SM
05:10
Overcast
Drizzle
41°F / 5°C 39°F / 4°C 93% 29.68 in
(1005 mb)
Calm - 5SM
04:50
Overcast
Rain
41°F / 5°C 39°F / 4°C 93% 29.68 in
(1005 mb)
Calm 0.03 in
(0.76 mm)
2SM
04:30
Overcast
Light Rain
41°F / 5°C 39°F / 4°C 93% 29.65 in
(1004 mb)
Calm 0.02 in
(0.51 mm)
1SM
04:10
Overcast
Light Rain
41°F / 5°C 39°F / 4°C 93% 29.65 in
(1004 mb)
Calm 0.01 in
(0.25 mm)
1/4SM
03:50
Overcast
Drizzle
41°F / 5°C 39°F / 4°C 93% 29.65 in
(1004 mb)
Calm - 1/4SM
03:30
Overcast
Drizzle
41°F / 5°C 39°F / 4°C 93% 29.65 in
(1004 mb)
Calm - 1/4SM
03:10
Overcast
Drizzle
41°F / 5°C 39°F / 4°C 93% 29.65 in
(1004 mb)
Calm - 1/4SM
02:50
Overcast
Drizzle
39°F / 4°C 39°F / 4°C 100% 29.65 in
(1004 mb)
Calm - 1/4SM
02:30
Overcast
Fog
41°F / 5°C 39°F / 4°C 93% 29.65 in
(1004 mb)
Calm - 1/4SM
02:10
Overcast
Fog
41°F / 5°C 39°F / 4°C 93% 29.65 in
(1004 mb)
Calm - 1/4SM
01:50
Overcast
Fog
41°F / 5°C 39°F / 4°C 93% 29.65 in
(1004 mb)
Calm - 1/4SM
01:30
Overcast
Fog
41°F / 5°C 39°F / 4°C 93% 29.65 in
(1004 mb)
Calm - 1/4SM
01:10
Overcast
Fog
41°F / 5°C 39°F / 4°C 93% 29.65 in
(1004 mb)
Calm - 1/4SM
00:50
Overcast
Fog
41°F / 5°C 39°F / 4°C 93% 29.65 in
(1004 mb)
Calm - 1/4SM
00:30
Overcast
Fog
41°F / 5°C 41°F / 5°C 100% 29.65 in
(1004 mb)
Calm - 1/4SM
00:10
Overcast
Fog
41°F / 5°C 41°F / 5°C 100% 29.65 in
(1004 mb)
Calm - 1/4SM
Time Weather Temperature Dewpoint Humidity Pressure Winds Precip Visibility


Weather for websites

WeatherForYou.com, LLC is not responsible for any damages or problems caused by this service. Current weather conditions are obtained from the closest station including government and personal stations which may have varying degrees of accuracy. Weather forecasts are derived from the NOAA NDFD. Like all things, this site belongs to Jesus Christ... He just trusts me to maintain it. If you have any questions or comments email webmaster@weatherforyou.com

Copyright © 2014, WeatherForYou.com LLC. All rights reserved.